CZ-6A DEB, 54574

Orbit data source: Space-Track

CZ-6A DEB, 54574 is space debris in SSO originally from a launch on Fri, 11 Nov 2022 UTC launched from the Taiyaun Space Center, China (TSC). Debris objects in space refer to the collection of defunct objects orbiting the Earth. Examples of debris include non-operational satellites, rocket bodies, and fragments generated from explosions, collisions, or faulty payload assembly.

Loading next visibility...
Identifier
54574, 2022-151MA
Orbit
SSO
Country
Flag of CNCN / PRC
Related business
Manufacturer
SAST
Mission
Spacecraft
Bus & Motor
Unknown
Mass
Unknown
Launch date (UTC)
2022-11-11 (4 years ago)
Launch vehicle
Unknown
Launch site
Taiyaun Space Center, China (TSC)
Object type
Payload
Rocket body
Debris
Shape & HBR
Unknown shape, 0.1 m
Radar Cross Section
Medium (>0.1 m² and <1 m²)

Expand to show TLE details & history
Last TLE update: 13 hours ago

TLE from 13 hours ago
0 CZ-6A DEB
1 54574U 22151MA  26236.59027676  .00002691  00000-0  62344-3 0  9997
2 54574  98.5580 283.4939 0101933  93.9950 267.2905 14.52776297198933
Epoch: 2026-08-24T14:09Z
TLE epoch observation values (Epoch: 2026-08-24T14:09:59.912Z)
Latitude
0.00005°
Longitude
98.12446°
Altitude
723.714 km
Speed
7.491 km/s
True Right ascension
18h 53m 58s
True Declination
0° 00' 00"
Sunlit
Object was in full shadow at epoch
Visualization orbit readout
Latitude
Unknown
Longitude
Unknown
Altitude
Unknown
Speed
Unknown
Apparent Right ascension
Unknown
Apparent Declination
Unknown
Sunlit
N/A
Visualization observer readout
Local Sidereal Time
17:53:36
Azimuth
Unknown
Elevation
Unknown
Doppler factor
Unknown
Orbital elements
Apogee altitude
785.992 km
Perigee altitude
641.413 km
Semi-major axis
7,091.839 km
Eccentricity
0.01019
Inclination
98.558°
RAAN
283.4939°
Arg. of periapsis
93.995°
True anomaly
266.12452°
Mean anomaly
267.2905°
Eccentric anomaly
266.70743°
Mean motion
3.63417 °/min
Orbital period
99.06 mins
BSTAR
0.00062344
Loading maneuver chart data...
Computing Atmospheric mass density...
Loading historical data...
Loading historical data...
Loading historical data...
Loading historical data...
Loading historical data...
Loading historical data...
Loading historical data...

Documentation

Showing up to 5 results
|